Погода в Сребном

Украина / Черниговская область     50°39′46″N   32°55′18″E
темп.,
°C
ветер,
м/с
пор.,
м/с
влажн.,
%
обл.,
%
осадки,
мм/ч
давл.,
гПа
погр.,
м
16 сентября, чт
чт1600:00+10с227040 0.0 101916
03:00+9ссз22750 0.0 101924
06:00+8ссв227925 0.0 101924
09:00+13св33515 0.0 1020322
12:00+17с33390 0.0 10201292
15:00+19ссз33331 0.0 10191705
18:00+17с34383 0.0 1018141
21:00+12всв334612 0.0 101928
17 сентября, пт
пт1700:00+10вюв2249100 0.0 101923
03:00+10юв335188 0.0 101848
06:00+12ююв354691 0.0 1017139
09:00+14ююв4646100 0.0 1015242
12:00+17ююв4743100 0.0 1014488
15:00+18ююв4741100 0.0 1013572
18:00+17юв3742100 0.0 1012306
21:00+13в61173100 1.3 1011244
18 сентября, сб
сб1800:00+13вюв51071100 0.4 1011278
03:00+13вюв61167100 0.6 1010302
06:00+12вюв61094100 2.8 1009396
09:00+11вюв81393100 11.4 1009388
12:00+11вюв71492100 1.3 1008505
15:00+13ююв81593100 4.9 1008661
18:00+13ююв61195100 0.1 1009412
21:00+13ююв5997100 0.3 1010375
19 сентября, вс
вс1900:00+12юв4797100 0.3 1011306
03:00+12вюв359670 0.3 1011183
06:00+12юв249592 0.0 1011114
09:00+14вюв238745 0.0 1011348
12:00+17вюв226891 0.1 1011977
15:00+17в2269100 1.9 1010723
18:00+15в2484100 3.1 1010120
21:00+13в3692100 4.6 1010270
20 сентября, пн
пн2000:00+12в3594100 0.9 1010256
03:00+11в3695100 3.4 1009349
06:00+10в3596100 8.4 1008324
09:00+11в4696100 12.5 1008330
12:00+11зюз4494100 1.1 1008474
15:00+11зюз4584100 1.2 1008677
18:00+10з468492 0.2 1008503
21:00+9зюз3689100 0.2 1008345